Weather History for Rolla, MO

Change the Weather History Date:

Wednesday, March 13, 2013

  Actual Average Record
Temperature  
Mean Temperature 34 °F 44 °F  
Max Temperature 43 °F 55 °F 81 °F (2012)
Min Temperature 24 °F 33 °F 12 °F (1993)
Degree Days  
Heating Degree Days 31 21  
Month to date heating degree days 377 298  
Since 1 July heating degree days 3963 4088  
Cooling Degree Days 0 0  
Month to date cooling degree days 0 0  
Year to date cooling degree days 0 0  
Moisture  
Dew Point 18 °F    
Average Humidity 56    
Maximum Humidity 75    
Minimum Humidity 36    
Precipitation  
Precipitation 0.00 in 0.10 in 0.85 in (1972)
Month to date precipitation 1.53 1.18  
Year to date precipitation 6.24 5.28  
Sea Level Pressure  
Sea Level Pressure 30.36 in    
Wind  
Wind Speed 8 mph (NW)    
Max Wind Speed 17 mph    
Max Gust Speed 24 mph    
Visibility 10 miles    
Events      
T = Trace of Precipitation, MM = Missing Value Source: NWS Daily Summary

Daily Weather History Graph

Daily Weather History Graph

Search for Another Location

Airport:

Trip Planner

Search our weather history database for the weather conditions in past years. The results will help you decide how hot, cold, wet, or windy it might be!

Date:

Astronomy

Mar. 13, 2013 Rise Set
Actual Time 7:20 AM CDT 7:12 PM CDT
Civil Twilight 6:54 AM CDT 7:38 PM CDT
Nautical Twilight 6:24 AM CDT 8:09 PM CDT
Astronomical Twilight 5:53 AM CDT 8:40 PM CDT
Moon 8:02 AM CDT (3/13) 9:26 PM CDT (3/13)
Length of Visible Light 12h 44m
Length of Day
11h 51m
Waxing Crescent, 4% of the Moon is Illuminated
Mar 13
Waxing Crescent
Mar 19
First Quarter
Mar 27
Full
Apr 2
Last Quarter
Apr 10
New

Hourly Weather History & Observations

Time (CDT) Temp. Windchill Dew Point Humidity Pressure Visibility Wind Dir Wind Speed Gust Speed Precip Events Conditions
12:53 AM 30.9 °F 20.7 °F 19.9 °F 64% 30.26 in 10.0 mi WNW 13.8 mph - N/A   Clear
1:53 AM 30.0 °F 19.5 °F 19.9 °F 66% 30.26 in 10.0 mi WNW 13.8 mph 18.4 mph N/A   Overcast
2:53 AM 30.0 °F 21.7 °F 19.9 °F 66% 30.26 in 10.0 mi WNW 9.2 mph - N/A   Overcast
3:53 AM 28.0 °F 18.1 °F 17.1 °F 63% 30.27 in 10.0 mi WNW 11.5 mph - N/A   Clear
4:53 AM 27.0 °F 17.3 °F 17.1 °F 66% 30.29 in 10.0 mi WNW 10.4 mph - N/A   Clear
5:53 AM 27.0 °F 15.6 °F 17.1 °F 66% 30.31 in 10.0 mi NW 13.8 mph - N/A   Scattered Clouds
6:06 AM 26.6 °F 14.3 °F 17.6 °F 69% 30.28 in 10.0 mi WNW 16.1 mph 19.6 mph N/A   Mostly Cloudy
6:26 AM 26.6 °F 15.2 °F 17.6 °F 69% 30.29 in 10.0 mi WNW 13.8 mph - N/A   Scattered Clouds
6:53 AM 25.0 °F 15.5 °F 18.0 °F 75% 30.33 in 10.0 mi WNW 9.2 mph - N/A   Clear
7:53 AM 25.0 °F 14.2 °F 18.0 °F 75% 30.35 in 10.0 mi WNW 11.5 mph - N/A   Clear
8:53 AM 27.0 °F 16.1 °F 18.0 °F 69% 30.38 in 10.0 mi NW 12.7 mph - N/A   Clear
9:53 AM 28.9 °F 17.3 °F 18.0 °F 64% 30.40 in 10.0 mi WNW 16.1 mph - N/A   Clear
10:53 AM 30.9 °F 22.2 °F 18.0 °F 59% 30.43 in 10.0 mi NW 10.4 mph 18.4 mph N/A   Clear
11:53 AM 33.1 °F 25.5 °F 19.0 °F 56% 30.44 in 10.0 mi NW 9.2 mph 24.2 mph N/A   Clear
12:53 PM 35.1 °F 27.9 °F 19.0 °F 52% 30.45 in 10.0 mi NW 9.2 mph - N/A   Clear
1:53 PM 37.0 °F 29.8 °F 19.9 °F 50% 30.44 in 10.0 mi North 10.4 mph 17.3 mph N/A   Clear
2:53 PM 39.9 °F 33.4 °F 17.1 °F 40% 30.42 in 10.0 mi NNW 10.4 mph - N/A   Clear
3:53 PM 41.0 °F 35.8 °F 19.0 °F 41% 30.40 in 10.0 mi NW 8.1 mph - N/A   Clear
4:53 PM 42.1 °F 36.6 °F 18.0 °F 38% 30.39 in 10.0 mi WNW 9.2 mph - N/A   Clear
5:53 PM 41.0 °F 38.0 °F 17.1 °F 38% 30.39 in 10.0 mi WNW 4.6 mph - N/A   Clear
6:53 PM 37.9 °F 34.4 °F 17.1 °F 43% 30.39 in 10.0 mi WNW 4.6 mph - N/A   Clear
7:53 PM 34.0 °F 31.0 °F 18.0 °F 52% 30.39 in 10.0 mi NNW 3.5 mph - N/A   Clear
8:53 PM 32.0 °F - 19.9 °F 61% 30.39 in 10.0 mi Calm Calm - N/A   Mostly Cloudy
9:53 PM 30.0 °F - 21.0 °F 69% 30.40 in 10.0 mi Calm Calm - N/A   Mostly Cloudy
10:53 PM 28.9 °F - 21.0 °F 72% 30.41 in 10.0 mi Calm Calm - N/A   Clear
11:53 PM 26.1 °F - 18.0 °F 71% 30.40 in 10.0 mi Calm Calm - N/A   Clear